Location: Mococo
(38.0255°N, 122.1161°W)
Time: 01:07:47
(UTC+00:00)

Meteor 2-8 Rocket - Pass Details

Date: 13 February 2026
Orbit: 936 x 957 km, 82.5° (Epoch: 9 March)

Event Time Altitude Azimuth Distance (km) Brightness Sun altitude
Exits shadow 12:51:27 50° 214° (SW) 1,192 4.7 -26.0°
Maximum altitude 12:53:01 70° 278° (W) 1,011 4.3 -25.7°
Drops below altitude 10° 12:59:10 10° 3° (N) 2,694 6.9 -24.5°
Sets 13:01:42 0° 5° (N) 3,645 7.6 -24.0°
